This is the latest recevied weather packets stored in our database for station/object K1ZK-13. If no packets are shown the sender has not sent any weather packets the latest 10 day(s).
| Time | Temp. | Humidity | Pressure | Rain* | Wind** | Luminosity | Snow |
|---|---|---|---|---|---|---|---|
| 1777692790 | 7.22° C | 66% | 1012.2 hPa | 0 mm | - | 0 W/m² | - |
| 1777692487 | 7.22° C | 60% | 1012.3 hPa | 0 mm | - | 0 W/m² | - |
| 1777692183 | 7.22° C | 60% | 1012.4 hPa | 0 mm | - | 0 W/m² | - |
| 1777690672 | 7.78° C | 56% | 1012.6 hPa | 0 mm | - | 0 W/m² | - |
| 1777690370 | 7.78° C | 56% | 1012.4 hPa | 0 mm | - | 0 W/m² | - |
| 1777689765 | 7.22° C | 58% | 1012.4 hPa | 0 mm | - | 0 W/m² | - |
| 1777689463 | 7.22° C | 58% | 1012.3 hPa | 0 mm | - | 0 W/m² | - |
| 1777683099 | 8.89° C | 53% | 1012 hPa | 0 mm | - | 0 W/m² | - |
| 1777682795 | 8.89° C | 53% | 1011.9 hPa | 0 mm | - | 0 W/m² | - |
| 1777682190 | 8.89° C | 53% | 1012.1 hPa | 0 mm | - | 0 W/m² | - |
| 1777681887 | 8.89° C | 53% | 1012 hPa | 0 mm | - | 0 W/m² | - |
| 1777681582 | 9.44° C | 52% | 1012 hPa | 0 mm | - | 0 W/m² | - |
| 1777680675 | 9.44° C | 50% | 1011.8 hPa | 0 mm | - | 1 W/m² | - |
| 1777680373 | 9.44° C | 50% | 1011.7 hPa | 0 mm | - | 1 W/m² | - |
| 1777680070 | 9.44° C | 50% | 1011.7 hPa | 0 mm | - | 2 W/m² | - |
| 1777679157 | 10° C | 48% | 1011.5 hPa | 0 mm | - | 7 W/m² | - |
| 1777678855 | 10° C | 48% | 1011.6 hPa | 0 mm | - | 7 W/m² | - |
| 1777678553 | 10° C | 48% | 1011.5 hPa | 0 mm | - | 9 W/m² | - |
| 1777678250 | 10.56° C | 47% | 1011.4 hPa | 0 mm | - | 10 W/m² | - |
| 1777677946 | 10.56° C | 46% | 1011.2 hPa | 0 mm | - | 12 W/m² | - |
| 1777677644 | 10.56° C | 46% | 1011.3 hPa | 0 mm | - | 12 W/m² | - |
| 1777677341 | 10.56° C | 46% | 1011.2 hPa | 0 mm | - | 21 W/m² | - |
| 1777677040 | 10.56° C | 46% | 1011.3 hPa | 0 mm | - | 21 W/m² | - |
| 1777676738 | 10.56° C | 46% | 1011.2 hPa | 0 mm | - | 21 W/m² | - |
| 1777676436 | 11.11° C | 45% | 1011.1 hPa | 0 mm | - | 28 W/m² | - |
* Rain latest hour (hover to see other rain measurements)
** Current wind speed in m/s (hover to see current wind gust speed)